Regional Weather Roundup
Issued by NWS Wilmington, NC

Home | Current Version | Previous Version | Text Only | Print | Product List | Glossary On
Versions: 1 2 3 4 5 6 7 8 9 10 11 12 13 14 15 16 17 18 19 20 21 22 23 24 25 26 27 28 29 30 31 32 33 34 35 36 37 38 39 40 41 42 43 44 45 46 47 48 49
526
ASUS42 KILM 040913
RWRILM
RWRILM
REGIONAL HOURLY WEATHER ROUNDUP
NATIONAL WEATHER SERVICE WILMINGTON NC
500 AM EDT WED MAY 04 2016

NOTE: "FAIR" INDICATES FEW OR NO CLOUDS BELOW 12,000 FEET WITH NO
SIGNIFICANT WEATHER AND/OR OBSTRUCTIONS TO VISIBILITY.

...............WFO WILMINGTON COUNTY WARNING AREA...............

......COASTAL NC AND SC COUNTIES......

CITY           SKY/WX    TMP DP  RH WIND       PRES   REMARKS
WILMINGTON     PTCLDY    68  62  81 SW10      29.69R
N MYRTLE BEACH CLOUDY    69  62  78 SW8       29.70R
MYRTLE BEACH   CLOUDY    70  57  64 SW6       29.73R

......INLAND NC AND SC COUNTIES.......

CITY           SKY/WX    TMP DP  RH WIND       PRES   REMARKS
LUMBERTON      CLOUDY    68  65  90 NW9       29.69R
ELIZABETHTOWN  MOCLDY    68  68 100 CALM      29.68R
WHITEVILLE     NOT AVBL
FLORENCE       CLOUDY    69  66  90 SW6       29.70R
DARLINGTON     CLOUDY    67  62  84 VRB6      29.70S
KINGSTREE      CLOUDY    64  63  94 SW3       29.70F
HARTSVILLE     MOCLDY    64  59  82 CALM      29.69S
BENNETTSVILLE  CLOUDY    68  64  88 N7        29.69S
CONWAY         CLOUDY    64  61  88 SW5       29.70F
GEORGETOWN     CLOUDY    64  63  94 W6        29.72S
MARION         MOCLDY    66  63  88 SW5       29.69S

....................REST OF NORTH CAROLINA......................

.........EASTERN NC.........

CITY           SKY/WX    TMP DP  RH WIND       PRES   REMARKS
CAPE HATTERAS  CLOUDY    67  66  97 CALM      29.67F
JACKSONVILLE   CLOUDY    66  65  96 CALM      29.68R
MOREHEAD CITY  PTCLDY    66  64  93 CALM      29.67S
KENANSVILLE    CLOUDY    65  63  94 CALM      29.69S
NEW BERN       CLEAR     63  60  90 SW3       29.68F
ELIZABETH CITY CLOUDY    63  62  97 CALM      29.67S

.........CENTRAL NC.........

CITY           SKY/WX    TMP DP  RH WIND       PRES   REMARKS
RALEIGH DURHAM PTCLDY    59  56  89 CALM      29.70F
ROCKY MOUNT    MOCLDY    61  61 100 CALM      29.67F
ROANOKE RAPIDS NOT AVBL
FAYETTEVILLE   PTCLDY    63  60  90 NW3       29.68S
HOFFMAN        MOCLDY    61  58  91 N7        29.69S

.........WESTERN NC.........

CITY           SKY/WX    TMP DP  RH WIND       PRES   REMARKS
CHARLOTTE      MOCLDY    59  50  73 CALM      29.73F
GREENSBORO     PTCLDY    57  50  77 N5        29.72F
HICKORY        NOT AVBL
BOONE          NOT AVBL
ASHEVILLE      NOT AVBL

.....................REST OF SOUTH CAROLINA.....................

.........EASTERN SC.........

CITY           SKY/WX    TMP DP  RH WIND       PRES   REMARKS
CHARLESTON     PTCLDY    67  64  90 NW3       29.70F
BEAUFORT MCAS  PTCLDY    68  66  93 S3        29.73R
HILTON HEAD    MOCLDY    70  70 100 S6        29.75R

.........CENTRAL SC.........

CITY           SKY/WX    TMP DP  RH WIND       PRES   REMARKS
COLUMBIA       CLOUDY    68  57  68 W8        29.71S
ORANGEBURG     CLOUDY    67  66  97 W5        29.72F
SUMTER SHAW    CLOUDY    67  64  91 SW6       29.68S

.........WESTERN SC.........

CITY           SKY/WX    TMP DP  RH WIND       PRES   REMARKS
GREENVILLE     NOT AVBL
ROCK HILL      CLEAR     56  54  93 CALM      29.73S
ANDERSON       CLEAR     56  50  80 W7        29.77S
CLEMSON        NOT AVBL
GREENWOOD      CLEAR     57  52  83 W3        29.77S


...................COASTAL AND OFFSHORE REPORTS..................

................LOCAL PIERS AND NC RESERVE................


STATION/POSITION TIME  SKY/WX   TEMP    WIND        PRES    VSBY
                                AIR SEA DIR/SP/G
                 (UTC)          (F)     (DEG/KT/KT) (MB)    (MI)
JOHNY MRCER PIER 0800            70 68  250/  9/ 12 1004.0S
NC RESRV MASNBRO NOT AVBL
OCEAN CREST PIER NOT AVBL
SPRINGMAID  PIER 0800            68 70  210/  8/ 10 1005.2F


................COASTAL AND OFFSHORE BUOYS................


STATION/POSITION TIME  SKY/WX   TEMP    WIND        PRES    VSBY
                                AIR SEA DIR/SP/G
                 (UTC)          (F)     (DEG/KT/KT) (MB)    (MI)
DIMNDSHOAL 41025 0850            69 72  310/ 12/ 16 1004.6R
WVE H/P(F/S)=  4/ 7 SWL H/P/D(F/S/D)=  3/170/ 7

CAPE LOOKOUT     0900            68     240/  6/  8 1004.5R
ONSLOW BAY 41036 NOT AVBL
ONSLOW BAY 41064 NOT AVBL
ONSLOW BAY 41159 0825               72                N/A
WVE H/P(F/S)=  6/ 7

5SE WRITBC 41038 NOT AVBL
MASNBO INL 41110 0806               70                N/A
WVE H/P(F/S)=  4/ 6

WILM HARBR 41108 0826               69                N/A
WVE H/P(F/S)=  5/ 6

27SE WRITB 41037 0808            72 72  250/ 14/ 17   N/A
FRYING PAN 41013 0800            76 73  240/ 16/ 17 1005.8R
SUNST NRSH 41024 0808            71 70  250/ 16/ 19 1004.6F
CAPRS NRSH 41029 0808            72 71  260/ 12/ 16 1006.0F
EDISTO     41004 0850            73 75  170/ 12/ 14 1005.8F
WVE H/P(F/S)=  3/ 7 SWL H/P/D(F/S/D)=  2/ 7



..........OFFSHORE BUOYS BEYOND 100 NM OFFSHORE...........
.....IN A TRIANGLE---HAT TO BERMUDA TO BAHAMAS TO HAT.....


STATION/POSITION TIME  SKY/WX   TEMP    WIND        PRES    VSBY
                                AIR SEA DIR/SP/G
                 (UTC)          (F)     (DEG/KT/KT) (MB)    (MI)
150E HAT   41001 NOT AVBL
W BERMUDA  41048 0850            71 70  180/ 10/ 12 1013.5S
WVE H/P(F/S)=  4/ 5 SWL H/P/D(F/S/D)=  3/100/ 8

ATLANTIC S 41049 0850            74 76  150/  8/ 10 1018.1F
WVE H/P(F/S)=  4/ 9 SWL H/P/D(F/S/D)=  3/ 70/ 9

E BAHAMAS  41046 0850            77 79  120/ 16/ 17 1015.1F
WVE H/P(F/S)=  5/10 SWL H/P/D(F/S/D)=  3/ 50/10

NE BAHAMAS 41047 0850            77 77  180/ 16/ 17 1013.5F
WVE H/P(F/S)=  4/ 9 SWL H/P/D(F/S/D)=  3/ 70/ 9

120E CANVRL41010 0820            78 78  200/ 10/ 12 1009.5F

END




USA.gov is the U.S. government's official web portal to all federal, state and local government web resources and services.